,,,PA_Meas_PMT16A,,PR_Meas_QMR101_102,,RH_Meas_QMH101,,SR_Meas_QMS101,,TA_Meas_QMH101,,GenWind,,GenWind,
date,time,status,PA,status,PR,status,RH,status,SR,status,TA,status,DirAvg,status,SpdAvg,
2010-03-10, 00:00:04,VALID,1003.83,VALID,0,VALID,92.0132,VALID,0,VALID,22.802,VALID,88,VALID,0,
2010-03-10, 00:01:04,VALID,1003.83,VALID,0,VALID,91.9751,VALID,0,VALID,22.7435,VALID,88,VALID,0,
2010-03-10, 00:02:04,VALID,1003.83,VALID,0,VALID,92.1582,VALID,0,VALID,22.7045,VALID,88,VALID,0,
2010-03-10, 00:03:04,VALID,1003.82,VALID,0,VALID,92.3413,VALID,0,VALID,22.7257,VALID,88,VALID,0,
2010-03-10, 00:04:04,VALID,1003.79,VALID,0,VALID,92.3566,VALID,0,VALID,22.7257,VALID,88,VALID,0,
2010-03-10, 00:05:04,VALID,1003.8,VALID,0,VALID,92.5015,VALID,0,VALID,22.7647,VALID,88,VALID,0,
2010-03-10, 00:06:04,VALID,1003.8,VALID,0,VALID,92.5549,VALID,0,VALID,22.7825,VALID,88,VALID,0,
2010-03-10, 00:07:04,VALID,1003.81,VALID,0,VALID,92.4939,VALID,0,VALID,22.8037,VALID,88,VALID,0,
2010-03-10, 00:08:04,VALID,1003.82,VALID,0,VALID,92.4405,VALID,0,VALID,22.8037,VALID,88,VALID,0,
2010-03-10, 00:09:04,VALID,1003.84,VALID,0,VALID,92.4252,VALID,0,VALID,22.8037,VALID,88,VALID,0,
2010-03-10, 00:10:04,VALID,1003.84,VALID,0,VALID,92.471,VALID,0,VALID,22.7647,VALID,88,VALID,0,
2010-03-10, 00:11:04,VALID,1003.83,VALID,0,VALID,92.4328,VALID,0,VALID,22.763,VALID,88,VALID,0,
2010-03-10, 00:12:04,VALID,1003.79,VALID,0,VALID,92.4023,VALID,0,VALID,22.7452,VALID,88,VALID,0,
2010-03-10, 00:13:04,VALID,1003.81,VALID,0,VALID,92.4405,VALID,0,VALID,22.7647,VALID,88,VALID,0,
2010-03-10, 00:14:04,VALID,1003.77,VALID,0,VALID,92.4557,VALID,0,VALID,22.7452,VALID,88,VALID,0,
2010-03-10, 00:15:04,VALID,1003.79,VALID,0,VALID,92.5626,VALID,0,VALID,22.724,VALID,88,VALID,0,
2010-03-10, 00:16:04,VALID,1003.76,VALID,0,VALID,92.7304,VALID,0,VALID,22.763,VALID,88,VALID,0,
2010-03-10, 00:17:04,VALID,1003.78,VALID,0,VALID,92.738,VALID,0,VALID,22.8037,VALID,88,VALID,0,
2010-03-10, 00:18:04,VALID,1003.78,VALID,0,VALID,92.7533,VALID,0,VALID,22.8232,VALID,88,VALID,0,
2010-03-10, 00:19:04,VALID,1003.74,VALID,0,VALID,92.7762,VALID,0,VALID,22.8427,VALID,88,VALID,0,
2010-03-10, 00:20:04,VALID,1003.72,VALID,0,VALID,92.7914,VALID,0,VALID,22.8605,VALID,88,VALID,0,
2010-03-10, 00:21:04,VALID,1003.72,VALID,0,VALID,92.7762,VALID,0,VALID,22.8605,VALID,88,VALID,0,
2010-03-10, 00:22:04,VALID,1003.69,VALID,0,VALID,92.7228,VALID,0,VALID,22.8818,VALID,88,VALID,0,
2010-03-10, 00:23:04,VALID,1003.7,VALID,0,VALID,92.6617,VALID,0,VALID,22.8623,VALID,88,VALID,0,
2010-03-10, 00:24:04,VALID,1003.66,VALID,0,VALID,92.5626,VALID,0,VALID,22.8215,VALID,88,VALID,0,
2010-03-10, 00:25:04,VALID,1003.71,VALID,0,VALID,92.4557,VALID,0,VALID,22.7842,VALID,88,VALID,0,
2010-03-10, 00:26:04,VALID,1003.69,VALID,0,VALID,92.3794,VALID,0,VALID,22.7257,VALID,88,VALID,0,
2010-03-10, 00:27:04,VALID,1003.67,VALID,0,VALID,92.3489,VALID,0,VALID,22.646,VALID,88,VALID,0,
2010-03-10, 00:28:04,VALID,1003.7,VALID,0,VALID,92.3413,VALID,0,VALID,22.6087,VALID,88,VALID,0,
2010-03-10, 00:29:04,VALID,1003.7,VALID,0,VALID,92.4634,VALID,0,VALID,22.5679,VALID,88,VALID,0,
2010-03-10, 00:30:04,VALID,1003.7,VALID,0,VALID,92.5473,VALID,0,VALID,22.5696,VALID,88,VALID,0,
2010-03-10, 00:31:04,VALID,1003.65,VALID,0,VALID,92.6541,VALID,0,VALID,22.5679,VALID,89,VALID,0,
2010-03-10, 00:32:04,VALID,1003.68,VALID,0,VALID,92.9135,VALID,0,VALID,22.6264,VALID,103,VALID,0,
2010-03-10, 00:33:04,VALID,1003.63,VALID,0,VALID,92.9822,VALID,0.112286,VALID,22.7257,VALID,111,VALID,0,
2010-03-10, 00:34:04,VALID,1003.64,VALID,0,VALID,93.0203,VALID,0.112286,VALID,22.7435,VALID,116,VALID,0,
2010-03-10, 00:35:04,VALID,1003.66,VALID,0,VALID,92.9974,VALID,0,VALID,22.8037,VALID,133,VALID,0.533594,
2010-03-10, 00:36:04,VALID,1003.63,VALID,0,VALID,92.8677,VALID,0.112286,VALID,22.8232,VALID,133,VALID,0.578125,
2010-03-10, 00:37:04,VALID,1003.65,VALID,0,VALID,92.7762,VALID,0.112286,VALID,22.8037,VALID,135,VALID,0.728125,
2010-03-10, 00:38:04,VALID,1003.64,VALID,0,VALID,92.6694,VALID,0.112286,VALID,22.7842,VALID,141,VALID,0.729688,
2010-03-10, 00:39:04,VALID,1003.67,VALID,0,VALID,92.616,VALID,0,VALID,22.7435,VALID,142,VALID,0.823047,
2010-03-10, 00:40:04,VALID,1003.65,VALID,0,VALID,92.6083,VALID,0,VALID,22.7435,VALID,139,VALID,0.975781,
2010-03-10, 00:41:04,VALID,1003.64,VALID,0,VALID,92.5854,VALID,0,VALID,22.763,VALID,136,VALID,0.879297,
2010-03-10, 00:42:04,VALID,1003.61,VALID,0,VALID,92.4939,VALID,0,VALID,22.7647,VALID,136,VALID,0.827734,
2010-03-10, 00:43:04,VALID,1003.59,VALID,0,VALID,92.41,VALID,0,VALID,22.7435,VALID,134,VALID,0.825781,
2010-03-10, 00:44:04,VALID,1003.59,VALID,0,VALID,92.3947,VALID,0,VALID,22.7452,VALID,128,VALID,0.923437,
2010-03-10, 00:45:04,VALID,1003.58,VALID,0,VALID,92.3108,VALID,0,VALID,22.7647,VALID,125,VALID,0.837109,
2010-03-10, 00:46:04,VALID,1003.52,VALID,0,VALID,92.3947,VALID,0,VALID,22.7435,VALID,125,VALID,0.865234,
2010-03-10, 00:47:04,VALID,1003.52,VALID,0,VALID,92.2726,VALID,0,VALID,22.7435,VALID,124,VALID,0.870703,
2010-03-10, 00:48:04,VALID,1003.5,VALID,0,VALID,92.2879,VALID,0.112286,VALID,22.7452,VALID,124,VALID,0.99375,
2010-03-10, 00:49:04,VALID,1003.48,VALID,0,VALID,92.3031,VALID,0,VALID,22.7842,VALID,121,VALID,0.9125,
2010-03-10, 00:50:04,VALID,1003.49,VALID,0,VALID,92.2116,VALID,0,VALID,22.7842,VALID,120,VALID,0.991797,
2010-03-10, 00:51:04,VALID,1003.49,VALID,0,VALID,92.2726,VALID,0,VALID,22.7842,VALID,125,VALID,1.03047,
2010-03-10, 00:52:04,VALID,1003.46,VALID,0,VALID,92.2116,VALID,0,VALID,22.7842,VALID,122,VALID,0.881641,
2010-03-10, 00:53:04,VALID,1003.46,VALID,0,VALID,92.0666,VALID,0.112286,VALID,22.763,VALID,122,VALID,0.646875,
2010-03-10, 00:54:04,VALID,1003.45,VALID,0,VALID,91.9369,VALID,0,VALID,22.7647,VALID,122,VALID,0.367188,
2010-03-10, 00:55:04,VALID,1003.45,VALID,0,VALID,91.8148,VALID,0,VALID,22.685,VALID,122,VALID,0.211719,
2010-03-10, 00:56:04,VALID,1003.43,VALID,0,VALID,91.708,VALID,0.112286,VALID,22.646,VALID,122,VALID,0.248047,
2010-03-10, 00:57:04,VALID,1003.44,VALID,0,VALID,91.792,VALID,0,VALID,22.6282,VALID,117,VALID,0.307422,
2010-03-10, 00:58:04,VALID,1003.42,VALID,0,VALID,91.8454,VALID,0.112286,VALID,22.6069,VALID,116,VALID,0.293359,
2010-03-10, 00:59:04,VALID,1003.43,VALID,0,VALID,91.8835,VALID,0.112286,VALID,22.6087,VALID,116,VALID,0.167969,
2010-03-10, 01:00:04,VALID,1003.42,VALID,0,VALID,91.8988,VALID,0.112286,VALID,22.5892,VALID,116,VALID,0.165625,
2010-03-10, 01:01:04,VALID,1003.41,VALID,0,VALID,91.9903,VALID,0,VALID,22.5892,VALID,116,VALID,0.539844,
2010-03-10, 01:02:04,VALID,1003.4,VALID,0,VALID,92.12,VALID,0,VALID,22.5679,VALID,111,VALID,0.794922,
2010-03-10, 01:03:04,VALID,1003.38,VALID,0,VALID,92.1506,VALID,0,VALID,22.6087,VALID,107,VALID,0.689844,
2010-03-10, 01:04:04,VALID,1003.33,VALID,0,VALID,92.1658,VALID,0.112286,VALID,22.6069,VALID,106,VALID,0.569531,
2010-03-10, 01:05:04,VALID,1003.34,VALID,0,VALID,92.1887,VALID,0.112286,VALID,22.6069,VALID,106,VALID,0.608984,
2010-03-10, 01:06:04,VALID,1003.33,VALID,0,VALID,92.1429,VALID,0,VALID,22.6282,VALID,106,VALID,0.570703,
2010-03-10, 01:07:04,VALID,1003.27,VALID,0,VALID,92.2803,VALID,0,VALID,22.6477,VALID,105,VALID,0.608594,
2010-03-10, 01:08:04,VALID,1003.29,VALID,0,VALID,92.1124,VALID,0,VALID,22.6477,VALID,99,VALID,0.423047,
2010-03-10, 01:09:04,VALID,1003.3,VALID,0,VALID,92.0437,VALID,0,VALID,22.5874,VALID,69,VALID,0.406641,
2010-03-10, 01:10:04,VALID,1003.31,VALID,0,VALID,92.12,VALID,0,VALID,22.6282,VALID,69,VALID,0.0121094,
2010-03-10, 01:11:04,VALID,1003.3,VALID,0,VALID,91.9827,VALID,0.112286,VALID,22.5892,VALID,69,VALID,0,
2010-03-10, 01:12:04,VALID,1003.31,VALID,0,VALID,92.1734,VALID,0,VALID,22.5892,VALID,69,VALID,0,
2010-03-10, 01:13:04,VALID,1003.31,VALID,0,VALID,92.2345,VALID,0.112286,VALID,22.5892,VALID,69,VALID,0,
2010-03-10, 01:14:04,VALID,1003.31,VALID,0,VALID,92.204,VALID,0,VALID,22.5679,VALID,69,VALID,0,
2010-03-10, 01:15:04,VALID,1003.31,VALID,0,VALID,92.0971,VALID,0,VALID,22.5679,VALID,69,VALID,0,
2010-03-10, 01:16:04,VALID,1003.29,VALID,0,VALID,92.0437,VALID,0,VALID,22.5501,VALID,69,VALID,0,
2010-03-10, 01:17:04,VALID,1003.29,VALID,0,VALID,92.2497,VALID,0,VALID,22.5696,VALID,69,VALID,0,
2010-03-10, 01:18:04,VALID,1003.28,VALID,0,VALID,92.1506,VALID,0,VALID,22.5501,VALID,69,VALID,0,
2010-03-10, 01:19:04,VALID,1003.28,VALID,0,VALID,92.0437,VALID,0,VALID,22.4899,VALID,69,VALID,0,
2010-03-10, 01:20:04,VALID,1003.27,VALID,0,VALID,92.2574,VALID,0,VALID,22.5111,VALID,48,VALID,0,
2010-03-10, 01:21:04,VALID,1003.28,VALID,0,VALID,92.2879,VALID,0,VALID,22.5111,VALID,36,VALID,0,
2010-03-10, 01:22:04,VALID,1003.31,VALID,0,VALID,92.1963,VALID,0,VALID,22.4509,VALID,29,VALID,0.819922,
2010-03-10, 01:23:04,VALID,1003.28,VALID,0,VALID,92.1429,VALID,0,VALID,22.4331,VALID,29,VALID,0.726953,
2010-03-10, 01:24:04,VALID,1003.26,VALID,0,VALID,92.2955,VALID,0,VALID,22.3941,VALID,29,VALID,0.462109,
2010-03-10, 01:25:04,VALID,1003.29,VALID,0,VALID,92.5626,VALID,0,VALID,22.4136,VALID,29,VALID,0.284375,
2010-03-10, 01:26:04,VALID,1003.28,VALID,0,VALID,92.7075,VALID,0,VALID,22.4526,VALID,29,VALID,0.167187,
2010-03-10, 01:27:04,VALID,1003.26,VALID,0,VALID,92.7838,VALID,0,VALID,22.5111,VALID,29,VALID,0.203516,
2010-03-10, 01:28:04,VALID,1003.25,VALID,0,VALID,92.7838,VALID,0,VALID,22.5501,VALID,29,VALID,0.161719,
2010-03-10, 01:29:04,VALID,1003.2,VALID,0,VALID,92.7685,VALID,0,VALID,22.5696,VALID,29,VALID,0.290234,
2010-03-10, 01:30:04,VALID,1003.18,VALID,0,VALID,92.7762,VALID,0,VALID,22.5696,VALID,29,VALID,0.21875,
2010-03-10, 01:31:04,VALID,1003.17,VALID,0,VALID,92.7151,VALID,0,VALID,22.5679,VALID,29,VALID,0,
2010-03-10, 01:32:04,VALID,1003.18,VALID,0,VALID,92.7151,VALID,0,VALID,22.5679,VALID,29,VALID,0,
2010-03-10, 01:33:04,VALID,1003.16,VALID,0,VALID,92.6617,VALID,0,VALID,22.5501,VALID,29,VALID,0,
2010-03-10, 01:34:04,VALID,1003.17,VALID,0,VALID,92.6312,VALID,0,VALID,22.5306,VALID,29,VALID,0,
2010-03-10, 01:35:04,VALID,1003.17,VALID,0,VALID,92.6236,VALID,0,VALID,22.5111,VALID,29,VALID,0,
2010-03-10, 01:36:04,VALID,1003.16,VALID,0,VALID,92.6312,VALID,0,VALID,22.5111,VALID,29,VALID,0,
2010-03-10, 01:37:04,VALID,1003.13,VALID,0,VALID,92.7075,VALID,0,VALID,22.4916,VALID,29,VALID,0,
2010-03-10, 01:38:04,VALID,1003.14,VALID,0,VALID,92.7151,VALID,0,VALID,22.5111,VALID,29,VALID,0,
2010-03-10, 01:39:04,VALID,1003.1,VALID,0,VALID,92.7914,VALID,0,VALID,22.5111,VALID,29,VALID,0,
2010-03-10, 01:40:04,VALID,1003.06,VALID,0,VALID,92.8143,VALID,0,VALID,22.5111,VALID,29,VALID,0,
2010-03-10, 01:41:04,VALID,1003.04,VALID,0,VALID,92.8296,VALID,0,VALID,22.5111,VALID,29,VALID,0,
2010-03-10, 01:42:04,VALID,1003.05,VALID,0,VALID,92.822,VALID,0.112286,VALID,22.5306,VALID,29,VALID,0,
2010-03-10, 01:43:04,VALID,1003.04,VALID,0,VALID,92.8372,VALID,0,VALID,22.5306,VALID,29,VALID,0,
2010-03-10, 01:44:04,VALID,1003.05,VALID,0,VALID,92.8296,VALID,0,VALID,22.5306,VALID,29,VALID,0,
2010-03-10, 01:45:04,VALID,1003.05,VALID,0,VALID,92.7228,VALID,0,VALID,22.4916,VALID,29,VALID,0,
2010-03-10, 01:46:04,VALID,1003.05,VALID,0,VALID,92.7838,VALID,0,VALID,22.5111,VALID,29,VALID,0,
2010-03-10, 01:47:04,VALID,1003.06,VALID,0,VALID,92.822,VALID,0,VALID,22.5111,VALID,29,VALID,0,
2010-03-10, 01:48:04,VALID,1003.04,VALID,0,VALID,92.738,VALID,0,VALID,22.4916,VALID,29,VALID,0,
2010-03-10, 01:49:04,VALID,1003.01,VALID,0,VALID,92.6617,VALID,0,VALID,22.4526,VALID,29,VALID,0,
2010-03-10, 01:50:04,VALID,1003.01,VALID,0,VALID,92.6923,VALID,0.112286,VALID,22.4136,VALID,29,VALID,0,
2010-03-10, 01:51:04,VALID,1003.01,VALID,0,VALID,92.8296,VALID,0,VALID,22.4331,VALID,29,VALID,0,
2010-03-10, 01:52:04,VALID,1003,VALID,0,VALID,92.9669,VALID,0,VALID,22.4526,VALID,100,VALID,0,
2010-03-10, 01:53:04,VALID,1003.02,VALID,0,VALID,93.0661,VALID,0,VALID,22.4916,VALID,111,VALID,0,
2010-03-10, 01:54:04,VALID,1003.02,VALID,0,VALID,93.089,VALID,0,VALID,22.5111,VALID,111,VALID,0,
2010-03-10, 01:55:04,VALID,1002.98,VALID,0,VALID,93.1348,VALID,0,VALID,22.5306,VALID,111,VALID,0,
2010-03-10, 01:56:04,VALID,1002.97,VALID,0,VALID,93.0814,VALID,0,VALID,22.5501,VALID,111,VALID,0,
2010-03-10, 01:57:04,VALID,1003.02,VALID,0,VALID,93.0432,VALID,0,VALID,22.5484,VALID,111,VALID,0,
2010-03-10, 01:58:04,VALID,1003,VALID,0,VALID,92.944,VALID,0,VALID,22.5892,VALID,111,VALID,0,
2010-03-10, 01:59:04,VALID,1002.97,VALID,0,VALID,92.6999,VALID,0,VALID,22.5501,VALID,113,VALID,0.291797,
2010-03-10, 02:00:04,VALID,1003,VALID,0,VALID,92.5244,VALID,0,VALID,22.5111,VALID,115,VALID,0.643359,
2010-03-10, 02:01:04,VALID,1003.01,VALID,0,VALID,92.3489,VALID,0,VALID,22.4526,VALID,115,VALID,0.344922,
2010-03-10, 02:02:04,VALID,1003.01,VALID,0,VALID,92.1429,VALID,0,VALID,22.3746,VALID,115,VALID,0.00585938,
2010-03-10, 02:03:04,VALID,1003.02,VALID,0,VALID,91.792,VALID,0,VALID,22.2186,VALID,55,VALID,0.519922,
2010-03-10, 02:04:04,VALID,1003.03,VALID,0,VALID,92.5702,VALID,0,VALID,22.2381,VALID,55,VALID,0.46875,
2010-03-10, 02:05:04,VALID,1003.02,VALID,0,VALID,92.6999,VALID,0,VALID,22.2966,VALID,55,VALID,0.33125,
2010-03-10, 02:06:04,VALID,1003.03,VALID,0,VALID,92.738,VALID,0,VALID,22.3356,VALID,55,VALID,0.150391,
2010-03-10, 02:07:04,VALID,1003.01,VALID,0,VALID,92.7075,VALID,0,VALID,22.3356,VALID,55,VALID,0.341406,
2010-03-10, 02:08:04,VALID,1003.03,VALID,0,VALID,92.6388,VALID,0,VALID,22.3144,VALID,55,VALID,0.266016,
2010-03-10, 02:09:04,VALID,1003.01,VALID,0,VALID,92.616,VALID,0,VALID,22.3356,VALID,55,VALID,0,
2010-03-10, 02:10:04,VALID,1003.01,VALID,0,VALID,92.6007,VALID,0,VALID,22.3551,VALID,55,VALID,0,
2010-03-10, 02:11:04,VALID,1002.98,VALID,0,VALID,92.5931,VALID,0,VALID,22.3356,VALID,55,VALID,0,
2010-03-10, 02:12:04,VALID,1002.99,VALID,0,VALID,92.6312,VALID,0,VALID,22.3339,VALID,58,VALID,0.423438,
2010-03-10, 02:13:04,VALID,1003,VALID,0,VALID,92.6694,VALID,0,VALID,22.3551,VALID,58,VALID,0.545703,
2010-03-10, 02:14:04,VALID,1003.01,VALID,0,VALID,92.883,VALID,0,VALID,22.3941,VALID,58,VALID,0.569141,
2010-03-10, 02:15:04,VALID,1002.99,VALID,0,VALID,92.9059,VALID,0,VALID,22.4526,VALID,58,VALID,0.693359,
2010-03-10, 02:16:04,VALID,1002.99,VALID,0,VALID,92.6465,VALID,0,VALID,22.4526,VALID,58,VALID,0.622656,
2010-03-10, 02:17:04,VALID,1002.99,VALID,0,VALID,92.4557,VALID,0,VALID,22.3941,VALID,54,VALID,0.690234,
2010-03-10, 02:18:04,VALID,1002.98,VALID,0,VALID,92.4023,VALID,0.112286,VALID,22.3356,VALID,39,VALID,0.847266,
2010-03-10, 02:19:04,VALID,1002.98,VALID,0,VALID,92.4786,VALID,0,VALID,22.2966,VALID,39,VALID,0.7125,
2010-03-10, 02:20:04,VALID,1002.98,VALID,0,VALID,92.4634,VALID,0,VALID,22.2754,VALID,39,VALID,0.7875,
2010-03-10, 02:21:04,VALID,1002.97,VALID,0,VALID,92.3413,VALID,0,VALID,22.2381,VALID,34,VALID,1.04648,
2010-03-10, 02:22:04,VALID,1002.95,VALID,0,VALID,92.3413,VALID,0,VALID,22.1795,VALID,33,VALID,0.980078,
2010-03-10, 02:23:04,VALID,1002.98,VALID,0,VALID,92.1811,VALID,0,VALID,22.121,VALID,33,VALID,0.920313,
2010-03-10, 02:24:04,VALID,1002.96,VALID,0,VALID,92.2421,VALID,0,VALID,22.043,VALID,33,VALID,0.967578,
2010-03-10, 02:25:04,VALID,1002.98,VALID,0,VALID,92.5549,VALID,0,VALID,22.043,VALID,33,VALID,0.892578,
2010-03-10, 02:26:04,VALID,1002.94,VALID,0,VALID,92.8143,VALID,0,VALID,22.0625,VALID,33,VALID,0.840625,
2010-03-10, 02:27:04,VALID,1002.94,VALID,0,VALID,92.9822,VALID,0,VALID,22.121,VALID,33,VALID,0.662891,
2010-03-10, 02:28:04,VALID,1002.9,VALID,0,VALID,92.9745,VALID,0,VALID,22.16,VALID,33,VALID,0.685156,
2010-03-10, 02:29:04,VALID,1002.89,VALID,0,VALID,93.0203,VALID,0,VALID,22.1795,VALID,32,VALID,0.780859,
2010-03-10, 02:30:04,VALID,1002.87,VALID,0,VALID,92.9669,VALID,0,VALID,22.199,VALID,21,VALID,0.653516,
2010-03-10, 02:31:04,VALID,1002.9,VALID,0,VALID,93.1271,VALID,0,VALID,22.2381,VALID,21,VALID,0.833594,
2010-03-10, 02:32:04,VALID,1002.86,VALID,0,VALID,93.1805,VALID,0,VALID,22.2771,VALID,21,VALID,0.699219,
2010-03-10, 02:33:04,VALID,1002.83,VALID,0,VALID,92.9822,VALID,0,VALID,22.2771,VALID,21,VALID,0.786328,
2010-03-10, 02:34:04,VALID,1002.83,VALID,0,VALID,92.9211,VALID,0,VALID,22.2381,VALID,21,VALID,0.629687,
2010-03-10, 02:35:04,VALID,1002.83,VALID,0,VALID,92.883,VALID,0,VALID,22.199,VALID,33,VALID,0.636719,
2010-03-10, 02:36:04,VALID,1002.82,VALID,0,VALID,93.0203,VALID,0,VALID,22.199,VALID,35,VALID,0.417188,
2010-03-10, 02:37:04,VALID,1002.86,VALID,0,VALID,92.9822,VALID,0,VALID,22.199,VALID,35,VALID,0.305469,
2010-03-10, 02:38:04,VALID,1002.86,VALID,0,VALID,92.9288,VALID,0,VALID,22.1795,VALID,35,VALID,0.376563,
2010-03-10, 02:39:04,VALID,1002.86,VALID,0,VALID,92.9211,VALID,0,VALID,22.16,VALID,35,VALID,0.294531,
2010-03-10, 02:40:04,VALID,1002.88,VALID,0,VALID,93.0051,VALID,0,VALID,22.1194,VALID,35,VALID,0.379297,
2010-03-10, 02:41:04,VALID,1002.89,VALID,0,VALID,93.0051,VALID,0.112286,VALID,22.1405,VALID,46,VALID,0.447266,
2010-03-10, 02:42:04,VALID,1002.87,VALID,0,VALID,93.0814,VALID,0.112286,VALID,22.1389,VALID,75,VALID,0.648438,
2010-03-10, 02:43:04,VALID,1002.88,VALID,0,VALID,93.0356,VALID,0,VALID,22.1405,VALID,78,VALID,0.614844,
2010-03-10, 02:44:04,VALID,1002.91,VALID,0,VALID,92.9593,VALID,0,VALID,22.1405,VALID,78,VALID,0.491016,
2010-03-10, 02:45:04,VALID,1002.93,VALID,0,VALID,92.9364,VALID,0,VALID,22.1015,VALID,78,VALID,0.287109,
2010-03-10, 02:46:04,VALID,1002.94,VALID,0,VALID,92.8754,VALID,0,VALID,22.0625,VALID,78,VALID,0.219141,
2010-03-10, 02:47:04,VALID,1002.92,VALID,0,VALID,92.8296,VALID,0,VALID,22.0235,VALID,78,VALID,0.107813,
2010-03-10, 02:48:04,VALID,1002.93,VALID,0,VALID,92.8067,VALID,0,VALID,21.9438,VALID,78,VALID,0,
2010-03-10, 02:49:04,VALID,1002.94,VALID,0,VALID,92.7991,VALID,0,VALID,21.926,VALID,78,VALID,0,
2010-03-10, 02:50:04,VALID,1002.87,VALID,0,VALID,92.8983,VALID,0,VALID,21.926,VALID,78,VALID,0,
2010-03-10, 02:51:04,VALID,1002.88,VALID,0,VALID,92.9669,VALID,0,VALID,21.9048,VALID,78,VALID,0,
2010-03-10, 02:52:04,VALID,1002.87,VALID,0,VALID,93.028,VALID,0,VALID,21.926,VALID,78,VALID,0,
2010-03-10, 02:53:04,VALID,1002.87,VALID,0,VALID,93.1043,VALID,0,VALID,21.9243,VALID,78,VALID,0,
2010-03-10, 02:54:04,VALID,1002.87,VALID,0,VALID,93.1653,VALID,0,VALID,21.9438,VALID,78,VALID,0,
2010-03-10, 02:55:04,VALID,1002.88,VALID,0,VALID,93.1577,VALID,0,VALID,21.9845,VALID,78,VALID,0,
2010-03-10, 02:56:04,VALID,1002.9,VALID,0,VALID,93.15,VALID,0,VALID,22.0235,VALID,78,VALID,0,
2010-03-10, 02:57:04,VALID,1002.91,VALID,0,VALID,93.1729,VALID,0.112286,VALID,22.0235,VALID,78,VALID,0,
2010-03-10, 02:58:04,VALID,1002.92,VALID,0,VALID,93.15,VALID,0,VALID,22.043,VALID,78,VALID,0,
2010-03-10, 02:59:04,VALID,1002.88,VALID,0,VALID,93.1195,VALID,0,VALID,22.0235,VALID,78,VALID,0,
2010-03-10, 03:00:04,VALID,1002.89,VALID,0,VALID,93.0814,VALID,0,VALID,22.0235,VALID,78,VALID,0,
2010-03-10, 03:01:04,VALID,1002.86,VALID,0,VALID,93.0661,VALID,0,VALID,22.004,VALID,78,VALID,0.259375,
2010-03-10, 03:02:04,VALID,1002.85,VALID,0,VALID,93.089,VALID,0.112286,VALID,22.004,VALID,78,VALID,0.355078,
2010-03-10, 03:03:04,VALID,1002.83,VALID,0,VALID,93.0508,VALID,0,VALID,21.9845,VALID,78,VALID,0.340234,
2010-03-10, 03:04:04,VALID,1002.87,VALID,0,VALID,93.1043,VALID,0,VALID,21.9845,VALID,81,VALID,0.597266,
2010-03-10, 03:05:04,VALID,1002.85,VALID,0,VALID,93.1119,VALID,0,VALID,21.9845,VALID,87,VALID,0.734375,
2010-03-10, 03:06:04,VALID,1002.85,VALID,0,VALID,93.1958,VALID,0,VALID,22.004,VALID,86,VALID,0.640234,
2010-03-10, 03:07:04,VALID,1002.87,VALID,0,VALID,93.2187,VALID,0,VALID,22.0235,VALID,86,VALID,0.514453,
2010-03-10, 03:08:04,VALID,1002.89,VALID,0,VALID,93.2797,VALID,0,VALID,22.043,VALID,72,VALID,0.407031,
2010-03-10, 03:09:04,VALID,1002.86,VALID,0,VALID,93.2492,VALID,0,VALID,22.082,VALID,72,VALID,0.210156,
2010-03-10, 03:10:04,VALID,1002.85,VALID,0,VALID,93.1882,VALID,0,VALID,22.082,VALID,72,VALID,0.268359,
2010-03-10, 03:11:04,VALID,1002.83,VALID,0,VALID,93.1729,VALID,0,VALID,22.0608,VALID,72,VALID,0.257813,
2010-03-10, 03:12:04,VALID,1002.83,VALID,0,VALID,93.0966,VALID,0,VALID,22.0625,VALID,72,VALID,0.307813,
2010-03-10, 03:13:04,VALID,1002.8,VALID,0,VALID,93.1271,VALID,0,VALID,22.0625,VALID,72,VALID,0.250781,
2010-03-10, 03:14:04,VALID,1002.81,VALID,0,VALID,93.0508,VALID,0.112286,VALID,22.0625,VALID,72,VALID,0.366016,
2010-03-10, 03:15:04,VALID,1002.81,VALID,0,VALID,92.6999,VALID,0,VALID,21.9845,VALID,72,VALID,0.404297,
2010-03-10, 03:16:04,VALID,1002.83,VALID,0,VALID,92.8906,VALID,0,VALID,21.926,VALID,63,VALID,0.542969,
2010-03-10, 03:17:04,VALID,1002.86,VALID,0,VALID,93.15,VALID,0,VALID,21.965,VALID,62,VALID,0.413672,
2010-03-10, 03:18:04,VALID,1002.85,VALID,0,VALID,93.2797,VALID,0,VALID,22.0023,VALID,62,VALID,0.373047,
2010-03-10, 03:19:04,VALID,1002.82,VALID,0,VALID,93.2874,VALID,0,VALID,22.0625,VALID,62,VALID,0.379687,
2010-03-10, 03:20:04,VALID,1002.84,VALID,0,VALID,93.0356,VALID,0,VALID,22.0235,VALID,62,VALID,0.302344,
2010-03-10, 03:21:04,VALID,1002.85,VALID,0,VALID,92.9822,VALID,0,VALID,21.9845,VALID,43,VALID,0.604297,
2010-03-10, 03:22:04,VALID,1002.85,VALID,0,VALID,93.1348,VALID,0,VALID,21.9845,VALID,40,VALID,0.571875,
2010-03-10, 03:23:04,VALID,1002.87,VALID,0,VALID,93.2416,VALID,0,VALID,22.0235,VALID,40,VALID,0.565625,
2010-03-10, 03:24:04,VALID,1002.85,VALID,0,VALID,93.2263,VALID,0,VALID,22.043,VALID,40,VALID,0.745703,
2010-03-10, 03:25:04,VALID,1002.84,VALID,0,VALID,93.15,VALID,0,VALID,22.0235,VALID,36,VALID,0.748828,
2010-03-10, 03:26:04,VALID,1002.82,VALID,0,VALID,93.1348,VALID,0,VALID,21.9845,VALID,36,VALID,0.632813,
2010-03-10, 03:27:04,VALID,1002.8,VALID,0,VALID,92.9135,VALID,0,VALID,21.965,VALID,33,VALID,0.696094,
2010-03-10, 03:28:04,VALID,1002.76,VALID,0,VALID,93.0203,VALID,0,VALID,21.8853,VALID,33,VALID,0.63125,
2010-03-10, 03:29:04,VALID,1002.76,VALID,0,VALID,93.0737,VALID,0,VALID,21.8853,VALID,33,VALID,0.612109,
2010-03-10, 03:30:04,VALID,1002.75,VALID,0,VALID,92.9898,VALID,0,VALID,21.8675,VALID,33,VALID,0.630469,
2010-03-10, 03:31:04,VALID,1002.79,VALID,0,VALID,92.944,VALID,0,VALID,21.8285,VALID,33,VALID,0.721094,
2010-03-10, 03:32:04,VALID,1002.8,VALID,0,VALID,93.0661,VALID,0,VALID,21.809,VALID,33,VALID,0.761719,
2010-03-10, 03:33:04,VALID,1002.8,VALID,0,VALID,93.1043,VALID,0,VALID,21.809,VALID,28,VALID,0.811328,
2010-03-10, 03:34:04,VALID,1002.82,VALID,0,VALID,93.089,VALID,0,VALID,21.7895,VALID,27,VALID,0.879297,
2010-03-10, 03:35:04,VALID,1002.78,VALID,0,VALID,93.0432,VALID,0,VALID,21.7293,VALID,27,VALID,0.680078,
2010-03-10, 03:36:04,VALID,1002.8,VALID,0,VALID,93.0661,VALID,0,VALID,21.731,VALID,27,VALID,0.632031,
2010-03-10, 03:37:04,VALID,1002.76,VALID,0,VALID,93.2034,VALID,0,VALID,21.7505,VALID,27,VALID,0.5,
2010-03-10, 03:38:04,VALID,1002.76,VALID,0,VALID,93.1577,VALID,0.112286,VALID,21.731,VALID,27,VALID,0.480078,
2010-03-10, 03:39:04,VALID,1002.77,VALID,0,VALID,93.1805,VALID,0,VALID,21.731,VALID,27,VALID,0.486328,
2010-03-10, 03:40:04,VALID,1002.79,VALID,0,VALID,93.295,VALID,0,VALID,21.731,VALID,27,VALID,0.454297,
2010-03-10, 03:41:04,VALID,1002.79,VALID,0,VALID,93.3255,VALID,0,VALID,21.77,VALID,27,VALID,0.405859,
2010-03-10, 03:42:04,VALID,1002.81,VALID,0,VALID,93.3103,VALID,0,VALID,21.77,VALID,27,VALID,0.315234,
2010-03-10, 03:43:04,VALID,1002.81,VALID,0,VALID,93.3331,VALID,0,VALID,21.7895,VALID,27,VALID,0.276563,
2010-03-10, 03:44:04,VALID,1002.78,VALID,0,VALID,93.3637,VALID,0,VALID,21.809,VALID,27,VALID,0,
2010-03-10, 03:45:04,VALID,1002.78,VALID,0,VALID,93.3713,VALID,0,VALID,21.8285,VALID,27,VALID,0,
2010-03-10, 03:46:04,VALID,1002.79,VALID,0,VALID,93.3789,VALID,0,VALID,21.848,VALID,27,VALID,0,
2010-03-10, 03:47:04,VALID,1002.78,VALID,0,VALID,93.4171,VALID,0,VALID,21.887,VALID,27,VALID,0.157422,
2010-03-10, 03:48:04,VALID,1002.81,VALID,0,VALID,93.4323,VALID,0,VALID,21.926,VALID,27,VALID,0,
2010-03-10, 03:49:04,VALID,1002.82,VALID,0,VALID,93.4018,VALID,0,VALID,21.9455,VALID,27,VALID,0,
2010-03-10, 03:50:04,VALID,1002.81,VALID,0,VALID,93.4094,VALID,0,VALID,21.965,VALID,27,VALID,0,
2010-03-10, 03:51:04,VALID,1002.8,VALID,0,VALID,93.3942,VALID,0,VALID,21.965,VALID,27,VALID,0,